RH
6 5 4 4 4 4 4 4 2 3 3 2 1 1 1 2 2 6 18 21 19 27 37 36 43 50 39 42 94 99 86 65 45 20 84 25 8 51 88 15 13 47 63 56 48
6 5 5 4 4 4 3 4 4 3 3 2 1 1 1 2 2 10 22 30 30 41 53 54 56 41 42 48 94 87 98 69 66 51 87 12 8 12 70 59 9 26 37 29 34
7 5 5 5 4 4 4 3 5 2 2 2 2 2 1 2 2 17 25 33 43 53 54 66 49 32 65 91 91 96 73 99 34 68 25 18 59 7 7 18 8 9 10 10 29
8 6 5 4 4 4 4 3 4 3 2 2 2 2 1 1 3 7 27 35 50 57 57 59 42 31 98 98 88 83 67 35 36 75 10 9 8 7 6 6 5 6 6 9 15
8 6 5 5 4 5 5 6 4 3 2 2 2 2 2 1 6 9 28 38 48 59 64 60 61 98 97 98 98 74 50 29 24 33 77 42 27 9 6 6 4 4 4 6 11
7 7 6 4 4 4 5 6 4 3 2 2 2 2 2 2 5 7 30 39 42 63 66 53 71 94 82 97 98 86 28 39 35 31 81 98 16 7 7 8 8 6 5 6 8
5 6 6 5 4 4 6 6 3 3 2 2 2 1 2 2 3 6 21 40 39 62 49 37 63 85 94 86 89 62 33 91 91 57 19 42 60 7 10 10 11 9 7 6 7
5 5 5 5 5 4 5 4 3 3 2 2 2 2 2 2 2 8 17 29 34 34 32 27 62 74 63 70 56 84 85 97 93 45 11 51 53 17 12 8 9 7 7 7 7
5 5 5 5 5 5 4 4 4 3 2 2 2 2 2 2 3 3 21 30 42 40 35 37 62 48 63 60 86 95 87 86 86 48 10 34 34 46 24 9 7 8 8 7 11
6 5 5 5 5 5 4 3 4 4 3 2 2 2 2 2 2 2 13 34 35 34 37 45 44 52 81 85 89 96 88 88 67 55 18 11 58 85 34 35 11 16 8 9 8
6 6 5 5 5 6 5 4 3 3 3 3 2 2 2 2 2 3 10 32 36 30 35 43 61 50 56 95 77 91 90 90 65 24 28 32 79 42 42 30 83 54 21 10 9
6 6 6 5 5 6 6 4 3 2 3 2 2 2 2 2 2 4 8 26 34 32 40 47 69 69 87 88 97 79 90 82 90 54 36 38 72 53 67 63 24 51 80 21 9
8 6 6 6 6 6 6 6 3 2 3 3 2 2 2 2 2 3 5 25 33 34 34 38 84 96 94 87 89 73 72 74 75 66 38 48 86 46 65 77 51 48 45 70 29
12 9 7 5 6 6 6 7 4 2 3 3 2 2 2 2 3 4 8 18 28 39 30 60 98 96 95 80 80 66 73 75 74 72 55 36 64 60 59 70 23 29 38 79 39
13 12 11 7 6 6 10 8 4 2 3 4 3 3 3 2 4 4 5 9 21 23 39 77 93 98 90 95 74 72 70 75 57 49 30 62 68 71 64 61 56 57 29 82 93
14 14 14 12 7 6 9 9 5 3 5 12 3 3 3 3 2 4 5 7 11 36 68 81 78 84 79 81 63 82 79 58 55 22 22 58 66 67 73 75 67 59 62 60 91
19 19 18 16 10 7 9 11 5 4 28 18 6 4 4 4 3 4 4 4 6 16 21 45 60 55 51 59 69 80 70 41 51 53 51 60 64 73 89 90 88 97 91 83 52
22 19 19 18 14 8 8 11 5 36 55 47 20 4 4 4 4 5 5 5 6 15 52 54 37 38 8 17 53 58 41 49 52 50 65 64 64 65 74 71 73 79 64 60 97
37 32 25 24 20 10 8 11 23 65 88 65 54 6 5 7 12 5 4 4 15 18 55 56 56 66 61 59 52 71 54 41 59 63 56 62 69 91 73 74 90 90 54 52 59
45 38 24 22 24 14 10 13 52 63 75 61 56 9 7 28 32 13 7 4 6 36 52 53 61 70 67 65 57 43 43 59 58 56 48 59 75 70 89 54 62 68 52 59 42
48 44 43 33 26 13 11 17 75 89 84 90 44 33 28 46 44 56 41 55 39 51 52 63 77 76 71 71 70 66 56 48 50 58 67 85 93 76 60 59 65 80 72 65 29
52 46 44 41 34 19 12 10 86 73 81 81 40 43 36 40 48 57 61 62 60 59 55 66 73 86 93 84 74 55 54 47 51 55 73 80 81 85 77 65 67 43 40 88 49
56 56 43 43 28 22 12 81 78 61 67 64 40 54 43 46 50 49 65 73 76 60 32 61 71 77 75 74 56 58 65 54 77 74 69 78 78 93 88 71 48 57 73 90 84
41 63 61 60 45 26 16 96 72 68 70 59 52 57 45 64 59 48 63 69 74 67 44 34 69 58 47 61 59 64 70 71 86 73 73 81 88 88 76 72 54 39 36 78 79
35 48 57 58 41 24 26 78 44 56 59 50 50 62 65 57 64 59 69 71 70 65 68 56 60 84 72 55 52 59 80 63 65 58 87 85 70 61 44 39 37 36 42 44 38
36 94 61 43 37 27 50 43 56 65 68 54 79 80 75 78 81 73 68 75 77 72 32 37 74 69 39 45 64 52 57 53 57 56 83 79 46 34 39 32 19 39 89 38 36
61 80 52 40 39 55 36 48 58 97 72 69 62 45 69 69 89 69 84 71 77 70 52 57 74 78 80 81 65 46 67 64 60 65 92 80 68 59 43 24 21 34 43 42 68
Wind_Speed
13 14 14 14 13 12 11 10 9 8 7 7 7 8 10 12 13 15 14 11 11 13 12 9 9 13 9 12 6 1 11 17 19 15 8 6 8 9 11 8 9 7 6 9 9
13 14 15 15 14 13 12 11 9 10 8 8 7 8 10 13 14 18 17 14 13 14 13 12 10 11 8 7 2 3 6 11 16 15 7 9 8 9 10 12 10 8 5 6 6
13 14 15 15 15 15 13 13 10 10 9 8 7 8 10 13 16 22 20 18 17 17 18 14 12 15 11 8 1 1 6 3 11 9 12 15 12 11 11 9 9 8 7 7 5
13 13 14 15 15 15 13 13 12 10 9 9 7 7 9 13 17 25 23 21 21 20 21 18 14 15 10 2 8 14 11 9 4 7 12 13 13 13 8 8 6 6 5 4 5
13 12 13 15 15 16 15 14 13 11 10 9 8 8 7 9 15 23 25 23 23 21 24 24 17 8 9 6 11 6 16 4 9 8 8 13 14 14 15 10 6 5 4 4 4
14 12 12 14 15 16 16 15 14 11 11 9 8 8 7 8 17 24 26 24 24 23 27 21 15 17 12 7 8 10 9 11 14 15 7 5 13 14 16 13 10 6 5 3 3
14 14 13 13 14 15 16 15 14 12 11 9 7 6 8 8 14 18 29 25 25 27 24 20 21 18 11 8 6 2 2 11 7 18 12 12 4 15 15 13 10 4 5 4 4
14 15 14 13 14 14 14 14 14 13 12 10 7 6 9 6 12 20 25 27 23 19 15 14 16 20 12 11 5 2 2 6 7 14 9 10 11 15 13 10 6 5 5 6 5
15 15 15 14 14 14 14 15 14 13 11 11 8 7 8 11 14 20 24 24 24 22 19 16 22 10 15 20 10 3 8 4 8 14 8 3 8 16 15 8 5 8 10 7 8
16 15 15 15 14 14 14 15 16 15 12 10 9 8 8 11 16 20 28 28 26 23 21 21 19 21 18 12 4 15 12 6 5 11 17 7 9 14 17 11 8 8 8 5 7
16 16 16 16 15 15 16 16 15 14 12 11 10 9 8 9 13 19 28 30 27 25 23 24 24 23 13 18 10 10 4 5 5 7 10 16 11 7 16 15 8 7 5 6 6
15 16 17 17 17 16 16 15 12 12 13 12 10 8 8 7 12 21 29 30 26 23 29 31 23 6 4 23 4 17 12 3 7 11 5 11 11 3 11 17 13 10 6 5 3
12 13 16 17 18 18 17 15 16 15 12 10 9 8 5 5 10 18 25 28 26 22 27 27 13 4 4 14 15 15 15 7 15 16 5 3 11 13 11 19 21 12 7 4 3
12 12 13 16 18 20 18 16 16 14 13 10 9 7 4 5 8 16 22 25 26 24 21 21 14 11 3 6 7 14 12 7 12 19 14 10 14 16 19 19 18 24 16 6 7
16 15 13 14 18 19 19 17 16 15 15 14 12 8 7 7 10 11 19 22 23 24 25 16 16 10 11 6 13 10 21 15 11 14 13 11 17 20 24 25 24 29 27 12 14
19 18 17 16 16 21 22 19 18 17 15 11 10 9 7 7 12 12 12 14 18 27 25 16 12 17 8 13 22 4 12 8 12 5 9 3 14 20 27 25 28 30 33 26 15
19 19 19 18 16 22 24 23 20 17 7 6 10 10 9 7 12 11 10 10 13 18 14 18 20 19 21 20 21 13 11 10 4 2 1 8 14 25 17 26 23 22 17 19 19
17 19 20 20 20 23 26 25 20 18 12 8 5 11 11 12 14 11 10 11 13 20 10 8 10 10 3 13 13 12 14 8 2 8 20 20 30 29 27 28 21 24 20 23 24
19 19 20 21 20 24 29 26 27 23 16 15 13 12 14 15 10 10 8 10 12 15 18 11 15 14 11 10 18 18 12 10 12 16 21 25 28 15 28 33 29 21 21 24 26
15 17 19 20 19 25 31 28 31 25 19 20 12 13 15 13 9 5 6 10 15 15 18 18 13 23 11 4 8 22 16 17 19 17 13 27 23 24 26 29 23 29 30 28 27
15 16 21 21 19 24 28 36 26 27 27 15 15 5 12 14 10 11 6 3 2 3 16 17 6 13 18 22 19 17 11 24 17 12 25 24 21 23 30 27 18 17 22 38 39
16 14 18 22 21 22 27 40 30 35 26 19 29 23 12 16 17 16 9 4 9 11 19 17 13 17 22 28 25 16 14 10 14 15 27 24 20 24 24 21 27 34 30 45 38
17 15 20 16 19 22 31 29 33 40 33 24 28 22 12 15 24 14 21 22 24 22 18 25 23 24 20 23 18 26 20 22 14 14 24 20 22 22 20 24 27 20 17 43 38
17 21 20 18 18 26 43 29 32 42 31 33 31 29 26 23 22 22 25 23 27 25 16 21 27 28 20 14 29 22 24 18 15 17 16 20 24 28 29 32 29 29 27 13 8
19 21 22 21 17 21 45 31 31 20 40 39 37 31 21 23 34 25 23 25 29 36 24 18 30 28 19 8 7 15 32 30 26 29 13 24 32 32 37 36 29 15 14 19 8
13 14 20 24 22 29 41 34 22 23 23 37 26 27 26 27 27 29 32 27 19 14 8 12 27 24 23 11 11 12 28 33 29 18 18 26 30 36 36 34 31 29 17 24 32
13 18 18 24 27 31 42 27 26 26 29 31 32 38 33 39 26 37 26 24 22 16 14 11 20 18 14 11 7 3 7 15 37 19 24 31 33 36 37 33 29 27 30 31 5
Wind_Direction
227 225 226 227 229 232 237 247 243 251 267 272 257 238 226 218 200 176 172 176 173 155 169 171 175 172 199 116 93 349 348 341 18 45 119 44 34 56 336 37 19 51 37 33 41
229 227 228 229 230 232 233 231 245 248 255 261 249 238 223 213 195 173 171 173 166 152 154 150 218 207 136 133 341 323 308 354 7 13 33 35 41 29 38 38 19 39 37 6 39
239 232 230 231 229 229 230 228 235 238 240 249 245 239 223 212 195 177 174 173 164 163 159 156 186 191 115 159 133 324 358 332 354 15 25 22 44 46 24 41 25 38 33 29 47
240 238 234 232 232 230 231 231 232 238 233 238 233 232 221 215 193 190 177 174 167 171 161 160 171 177 98 130 49 332 334 328 61 356 24 31 12 29 36 45 32 13 5 6 40
236 237 237 233 231 231 233 233 229 232 230 234 232 230 224 205 184 191 182 177 172 172 156 172 149 162 130 116 104 290 324 352 61 29 6 14 30 24 32 25 39 16 29 22 5
234 234 235 237 235 231 231 236 228 228 225 230 232 228 222 201 198 186 185 184 175 176 178 189 141 138 126 120 76 339 342 42 27 17 351 15 28 37 19 17 6 27 46 32 24
236 234 234 235 237 236 233 230 225 227 223 231 234 224 217 192 194 208 186 188 182 179 192 186 168 149 117 103 292 4 232 63 347 349 348 11 352 27 24 21 353 51 102 91 117
231 232 232 231 233 235 227 224 224 226 223 229 232 216 222 203 211 188 205 193 190 194 175 183 147 161 154 120 232 184 82 167 337 347 336 15 8 28 25 25 23 24 68 83 67
226 228 228 229 230 229 225 224 228 225 226 224 226 222 221 208 207 198 193 195 189 185 170 175 166 196 166 118 115 108 285 283 346 341 332 353 34 2 6 16 48 58 61 56 87
224 224 226 224 227 228 225 221 225 226 225 219 226 234 233 229 228 207 189 197 194 181 174 161 165 141 135 144 172 182 286 273 332 352 321 333 40 355 345 351 25 64 76 49 43
223 223 222 223 222 225 223 224 226 230 228 223 233 240 247 234 220 204 194 191 197 191 162 150 165 166 144 180 202 145 308 237 5 29 332 288 332 76 357 350 0 8 3 99 83
223 222 223 221 222 221 223 224 228 209 211 219 233 236 253 243 203 196 194 193 193 192 155 160 173 171 205 177 160 149 176 355 290 305 300 298 336 329 350 335 336 11 99 20 116
218 223 223 222 221 218 221 215 219 211 212 217 233 234 231 224 202 197 192 191 188 187 170 172 180 237 168 152 157 182 209 227 256 280 339 318 292 297 323 319 329 330 339 284 234
229 229 229 225 221 219 216 214 217 217 206 213 207 224 215 194 187 185 190 193 190 176 182 164 169 223 203 183 168 141 197 210 225 243 276 263 296 310 315 323 341 320 324 345 329
240 242 236 230 226 217 216 213 214 208 200 197 201 203 191 169 150 179 193 197 192 180 182 153 172 268 184 158 183 197 205 221 239 253 250 219 267 288 286 294 311 313 321 273 304
242 243 244 241 230 219 213 207 209 198 210 191 188 188 197 171 165 145 165 185 193 170 178 160 168 232 232 247 182 152 269 221 242 258 231 123 267 263 269 285 292 300 307 293 259
241 241 241 243 233 217 212 206 201 186 191 179 193 181 183 186 161 143 154 165 187 167 169 181 194 208 224 226 178 186 242 151 151 313 53 277 291 278 285 243 243 259 291 282 287
242 239 238 237 234 214 207 207 189 156 79 331 165 192 179 179 149 151 160 167 175 137 109 30 53 27 251 200 189 253 257 169 207 297 278 290 278 270 277 281 248 255 280 275 267
243 237 232 234 231 214 204 200 164 131 133 236 276 208 190 172 176 171 190 181 174 163 166 215 289 296 268 305 199 212 238 193 283 287 262 283 280 275 274 274 278 249 241 257 263
232 225 224 218 222 212 202 171 162 156 174 157 271 216 194 170 192 175 197 186 174 159 169 178 245 234 243 282 208 236 221 221 227 264 274 288 286 292 301 308 284 257 221 232 237
230 229 217 207 211 211 199 170 180 153 134 122 241 224 161 183 206 242 312 100 205 152 183 180 238 206 188 204 224 229 264 224 222 230 282 293 297 298 298 307 299 277 234 225 239
223 225 213 207 214 212 186 172 180 153 149 164 182 197 179 189 235 197 247 169 232 197 234 185 210 285 208 197 211 227 221 205 224 250 270 286 310 279 291 313 303 306 277 204 222
215 207 205 210 212 197 179 175 192 173 149 167 174 177 192 190 228 212 219 210 228 244 225 195 216 228 242 223 223 194 219 227 214 262 263 278 290 314 316 307 310 310 262 201 215
208 199 202 199 198 191 171 182 195 169 163 173 178 170 181 201 231 224 223 239 221 229 233 229 229 236 239 255 220 231 208 228 226 237 261 261 285 305 300 299 301 308 307 312 212
203 200 196 178 181 189 181 186 182 191 173 174 186 177 193 197 212 212 226 231 240 242 251 258 229 237 246 279 327 244 220 222 232 245 279 282 278 289 292 299 307 320 337 347 282
211 199 174 180 170 180 183 183 162 144 195 188 208 211 212 202 213 207 222 235 212 214 236 242 231 247 249 267 255 221 213 225 232 257 270 268 271 272 282 293 308 307 271 259 258
187 207 194 180 163 181 187 183 167 181 197 194 207 212 204 204 221 212 224 222 201 193 195 214 227 244 256 238 225 64 314 267 225 254 275 290 286 283 287 297 299 290 291 296 31